Weather History for Memphis, TN

Change the Weather History Date:

Thursday, October 2, 2014

  Actual Average Record
Temperature  
Mean Temperature 78 °F 69 °F  
Max Temperature 90 °F 79 °F 93 °F (1954)
Min Temperature 66 °F 59 °F 39 °F (1984)
Degree Days  
Heating Degree Days 0 1  
Month to date heating degree days 0 2  
Since 1 July heating degree days 1 13  
Cooling Degree Days 13 5  
Month to date cooling degree days 27 11  
Year to date cooling degree days 2078 2162  
Growing Degree Days 28 (Base 50)    
Moisture  
Dew Point 68 °F    
Average Humidity 70    
Maximum Humidity 87    
Minimum Humidity 52    
Precipitation  
Precipitation 0.87 in 0.12 in 1.77 in (1937)
Month to date precipitation 0.87 0.24  
Year to date precipitation 49.34 38.71  
Snow  
Snow 0.00 in 0.00 in 0.00 in (2002)
Month to date snowfall 0.0 0.0  
Since 1 July snowfall 0.0 0.0  
Since 1 September snowfall 0.0 0.0  
Snow Depth 0.00 in    
Sea Level Pressure  
Sea Level Pressure 29.86 in    
Wind  
Wind Speed 10 mph (South)    
Max Wind Speed 43 mph    
Max Gust Speed 61 mph    
Visibility 9 miles    
Events Rain , Thunderstorm    
T = Trace of Precipitation, MM = Missing Value Source: NWS Daily Summary

Daily Weather History Graph

Daily Weather History Graph

Search for Another Location

Airport:

Trip Planner

Search our weather history database for the weather conditions in past years. The results will help you decide how hot, cold, wet, or windy it might be!

Date:

Astronomy

Oct. 02, 2014 Rise Set
Actual Time 6:55 AM CDT 6:42 PM CDT
Civil Twilight 6:30 AM CDT 7:07 PM CDT
Nautical Twilight 6:00 AM CDT 7:36 PM CDT
Astronomical Twilight 5:31 AM CDT 8:06 PM CDT
Moon 2:37 PM CDT (10/2) 12:25 AM CDT (10/2)
Length of Visible Light 12h 37m
Length of Day
11h 46m
First Quarter, 60% of the Moon is Illuminated
Oct 2
First Quarter
Oct 8
Full
Oct 15
Last Quarter
Oct 23
New
Oct 30
First Quarter

Hourly Weather History & Observations

Time (CDT) Temp. Heat Index Dew Point Humidity Pressure Visibility Wind Dir Wind Speed Gust Speed Precip Events Conditions
12:54 AM 75.0 °F - 62.1 °F 64% 29.89 in 10.0 mi SSE 5.8 mph - N/A   Clear
1:54 AM 73.0 °F - 63.0 °F 71% 29.90 in 10.0 mi South 6.9 mph - N/A   Clear
2:54 AM 72.0 °F - 64.0 °F 76% 29.89 in 10.0 mi South 8.1 mph - N/A   Clear
3:54 AM 73.0 °F - 64.0 °F 73% 29.90 in 10.0 mi South 9.2 mph - N/A   Partly Cloudy
4:54 AM 73.0 °F - 66.0 °F 79% 29.90 in 10.0 mi South 6.9 mph - N/A   Partly Cloudy
5:54 AM 72.0 °F - 66.0 °F 81% 29.91 in 10.0 mi South 9.2 mph - N/A   Scattered Clouds
6:50 AM 73.4 °F - 66.2 °F 78% 29.93 in 10.0 mi South 8.1 mph - N/A   Mostly Cloudy
6:54 AM 73.0 °F - 66.9 °F 81% 29.93 in 10.0 mi South 9.2 mph - N/A   Mostly Cloudy
7:54 AM 73.9 °F - 68.0 °F 82% 29.94 in 10.0 mi South 9.2 mph - N/A   Overcast
8:31 AM 75.2 °F - 69.8 °F 83% 29.96 in 10.0 mi South 8.1 mph - N/A   Overcast
8:54 AM 75.0 °F - 70.0 °F 84% 29.95 in 7.0 mi South 9.2 mph - N/A   Overcast
9:38 AM 77.0 °F - 71.6 °F 83% 29.95 in 10.0 mi South 9.2 mph 20.7 mph N/A   Mostly Cloudy
9:54 AM 79.0 °F - 71.1 °F 77% 29.94 in 10.0 mi SSW 6.9 mph - N/A   Mostly Cloudy
10:15 AM 80.6 °F 84.6 °F 71.6 °F 74% 29.95 in 10.0 mi South 9.2 mph - N/A   Mostly Cloudy
10:54 AM 82.0 °F 86.7 °F 72.0 °F 71% 29.93 in 10.0 mi South 9.2 mph - N/A   Mostly Cloudy
11:54 AM 84.9 °F 90.1 °F 71.1 °F 63% 29.91 in 10.0 mi SSW 9.2 mph 21.9 mph N/A   Mostly Cloudy
12:54 PM 84.9 °F 88.8 °F 69.1 °F 59% 29.89 in 10.0 mi South 12.7 mph - N/A   Mostly Cloudy
1:09 PM 87.8 °F 92.6 °F 69.8 °F 55% 29.89 in 10.0 mi South 12.7 mph - N/A   Mostly Cloudy
1:54 PM 89.1 °F 94.1 °F 70.0 °F 53% 29.85 in 10.0 mi SSW 11.5 mph - N/A   Mostly Cloudy
2:54 PM 90.0 °F 95.4 °F 70.0 °F 52% 29.82 in 10.0 mi South 15.0 mph - N/A   Mostly Cloudy
3:54 PM 87.1 °F 92.0 °F 70.0 °F 57% 29.81 in 10.0 mi SSE 18.4 mph - N/A   Mostly Cloudy
3:58 PM 84.2 °F 88.4 °F 69.8 °F 62% 29.85 in 0.5 mi South 42.6 mph 61.0 mph N/A   Haze
4:04 PM 73.4 °F - 69.8 °F 88% 29.85 in 0.5 mi South 38.0 mph 61.0 mph 0.01 in Rain , Thunderstorm Thunderstorms and Rain
4:12 PM 73.4 °F - 71.6 °F 94% 29.83 in 2.5 mi South 17.3 mph 48.3 mph 0.03 in Rain , Thunderstorm Thunderstorms and Rain
4:15 PM 73.4 °F - 71.6 °F 94% 29.82 in 8.0 mi South 16.1 mph - 0.03 in Rain , Thunderstorm Thunderstorms and Rain
4:49 PM 75.2 °F - 69.8 °F 83% 29.82 in 10.0 mi SSW 8.1 mph - 0.03 in   Mostly Cloudy
4:54 PM 75.0 °F - 70.0 °F 84% 29.82 in 10.0 mi SW 8.1 mph - 0.03 in   Mostly Cloudy
5:01 PM 75.2 °F - 69.8 °F 83% 29.83 in 10.0 mi SW 6.9 mph - N/A Thunderstorm Thunderstorm
5:32 PM 75.2 °F - 69.8 °F 83% 29.82 in 7.0 mi South 5.8 mph - 0.05 in Rain Light Rain
5:54 PM 75.9 °F - 71.1 °F 85% 29.81 in 10.0 mi South 12.7 mph - 0.05 in   Mostly Cloudy
6:54 PM 75.9 °F - 71.1 °F 85% 29.78 in 10.0 mi South 11.5 mph - N/A   Scattered Clouds
7:54 PM 75.9 °F - 72.0 °F 87% 29.78 in 10.0 mi SSE 13.8 mph - N/A   Partly Cloudy
8:54 PM 75.9 °F - 72.0 °F 87% 29.80 in 10.0 mi South 15.0 mph - N/A   Mostly Cloudy
9:54 PM 75.9 °F - 72.0 °F 87% 29.78 in 10.0 mi South 13.8 mph 21.9 mph N/A   Mostly Cloudy
10:29 PM 77.0 °F - 71.6 °F 83% 29.79 in 10.0 mi South 15.0 mph 20.7 mph N/A Thunderstorm Thunderstorm
10:40 PM 73.4 °F - 69.8 °F 88% 29.86 in 10.0 mi WNW 26.5 mph 34.5 mph N/A Thunderstorm Thunderstorm
10:42 PM 71.6 °F - 64.4 °F 78% 29.86 in 10.0 mi WNW 24.2 mph 34.5 mph 0.00 in Rain , Thunderstorm Light Thunderstorms and Rain
10:50 PM 66.2 °F - 62.6 °F 88% 29.86 in 1.8 mi West 18.4 mph 32.2 mph 0.15 in Rain , Thunderstorm Heavy Thunderstorms and Rain
10:54 PM 66.0 °F - 63.0 °F 90% 29.85 in 1.0 mi WSW 10.4 mph 27.6 mph 0.30 in Rain , Thunderstorm Heavy Thunderstorms and Rain
11:01 PM 66.2 °F - 62.6 °F 88% 29.84 in 1.0 mi Variable 6.9 mph - N/A Rain , Thunderstorm Heavy Thunderstorms and Rain
11:10 PM 66.2 °F - 62.6 °F 88% 29.84 in 4.0 mi Variable 3.5 mph - 0.25 in Rain , Thunderstorm Thunderstorms and Rain
11:40 PM 66.2 °F - 62.6 °F 88% 29.82 in 9.0 mi Calm Calm - 0.32 in Rain , Thunderstorm Thunderstorms and Rain
11:50 PM 66.2 °F - 62.6 °F 88% 29.84 in 10.0 mi South 5.8 mph - 0.34 in Rain Light Rain
11:54 PM 66.9 °F - 63.0 °F 87% 29.83 in 10.0 mi South 5.8 mph - 0.34 in Rain Light Rain